Time,TemperatureF,DewpointF,PressureIn,WindDirection,WindDirectionDegrees,WindSpeedMPH,WindSpeedGustMPH,Humidity,HourlyPrecipIn,Conditions,Clouds,dailyrainin,SoftwareType,DateUTC
2013-04-04 00:00:00,48.0,45.8,29.61,NNW,336,0.0,1.0,92,0.00,,,0.10,VWS V14.01,2013-04-04 05:00:00,
2013-04-04 00:05:00,48.0,45.8,29.61,NNW,336,0.0,0.0,92,0.00,,,0.00,VWS V14.01,2013-04-04 05:05:00,
2013-04-04 00:10:00,48.1,45.9,29.60,NNW,336,0.0,0.0,92,0.00,,,0.00,VWS V14.01,2013-04-04 05:10:00,
2013-04-04 00:15:00,48.1,45.9,29.60,NNW,336,3.0,3.0,92,0.00,,,0.00,VWS V14.01,2013-04-04 05:15:00,
2013-04-04 00:20:00,48.1,45.9,29.60,NNW,336,0.0,3.0,92,0.00,,,0.00,VWS V14.01,2013-04-04 05:20:00,
2013-04-04 00:25:00,48.0,45.8,29.60,NNW,336,0.0,2.0,92,0.00,,,0.00,VWS V14.01,2013-04-04 05:25:00,
2013-04-04 00:30:00,48.0,45.8,29.60,NNW,340,0.0,3.0,92,0.00,,,0.00,VWS V14.01,2013-04-04 05:30:00,
2013-04-04 00:35:00,48.1,45.9,29.60,NNW,340,1.0,1.0,92,0.00,,,0.00,VWS V14.01,2013-04-04 05:35:00,
2013-04-04 00:40:00,48.0,45.8,29.60,NNW,340,3.0,3.0,92,0.00,,,0.00,VWS V14.01,2013-04-04 05:40:00,
2013-04-04 00:45:00,48.0,46.1,29.60,North,349,1.0,6.0,93,0.00,,,0.00,VWS V14.01,2013-04-04 05:45:00,
2013-04-04 00:50:00,48.0,46.1,29.60,North,349,2.0,2.0,93,0.00,,,0.00,VWS V14.01,2013-04-04 05:50:00,
2013-04-04 00:55:00,48.0,46.1,29.60,North,355,3.0,6.0,93,0.00,,,0.00,VWS V14.01,2013-04-04 05:55:00,
2013-04-04 01:00:00,47.9,46.0,29.60,North,355,2.0,6.0,93,0.00,,,0.00,VWS V14.01,2013-04-04 06:00:00,
2013-04-04 01:05:00,47.7,45.5,29.60,NNE,16,3.0,6.0,92,0.00,,,0.00,VWS V14.01,2013-04-04 06:05:00,
2013-04-04 01:10:00,47.5,45.3,29.60,NW,317,0.0,6.0,92,0.00,,,0.00,VWS V14.01,2013-04-04 06:10:00,
2013-04-04 01:15:00,47.2,45.0,29.60,NNW,338,0.0,5.0,92,0.00,,,0.00,VWS V14.01,2013-04-04 06:15:00,
2013-04-04 01:20:00,47.0,44.8,29.60,North,355,1.0,5.0,92,0.00,,,0.00,VWS V14.01,2013-04-04 06:20:00,
2013-04-04 01:25:00,46.9,44.7,29.60,North,355,3.0,3.0,92,0.00,,,0.00,VWS V14.01,2013-04-04 06:25:00,
2013-04-04 01:30:00,46.8,44.6,29.60,North,355,0.0,4.0,92,0.00,,,0.00,VWS V14.01,2013-04-04 06:30:00,
2013-04-04 01:35:00,46.8,44.6,29.60,North,355,0.0,3.0,92,0.00,,,0.00,VWS V14.01,2013-04-04 06:35:00,
2013-04-04 01:40:00,46.7,44.5,29.60,North,360,2.0,2.0,92,0.00,,,0.00,VWS V14.01,2013-04-04 06:40:00,
2013-04-04 01:45:00,46.7,44.5,29.60,North,360,0.0,3.0,92,0.00,,,0.00,VWS V14.01,2013-04-04 06:45:00,
2013-04-04 01:50:00,46.6,44.4,29.60,North,360,0.0,4.0,92,0.00,,,0.00,VWS V14.01,2013-04-04 06:50:00,
2013-04-04 01:55:00,46.5,44.3,29.60,North,360,0.0,4.0,92,0.00,,,0.00,VWS V14.01,2013-04-04 06:55:00,
2013-04-04 02:00:00,46.4,44.2,29.60,North,360,4.0,4.0,92,0.00,,,0.00,VWS V14.01,2013-04-04 07:00:00,
2013-04-04 02:05:00,46.3,44.1,29.60,North,360,0.0,4.0,92,0.00,,,0.00,VWS V14.01,2013-04-04 07:05:00,
2013-04-04 02:10:00,46.3,44.1,29.59,North,360,1.0,4.0,92,0.00,,,0.00,VWS V14.01,2013-04-04 07:10:00,
2013-04-04 02:15:00,46.2,44.0,29.59,North,5,0.0,5.0,92,0.00,,,0.00,VWS V14.01,2013-04-04 07:15:00,
2013-04-04 02:20:00,46.1,43.9,29.59,North,5,0.0,0.0,92,0.00,,,0.00,VWS V14.01,2013-04-04 07:20:00,
2013-04-04 02:25:00,46.2,44.0,29.59,North,5,0.0,2.0,92,0.00,,,0.00,VWS V14.01,2013-04-04 07:25:00,
2013-04-04 02:30:00,46.2,44.0,29.58,North,5,0.0,0.0,92,0.00,,,0.00,VWS V14.01,2013-04-04 07:30:00,
2013-04-04 02:35:00,46.2,44.0,29.58,North,5,0.0,0.0,92,0.00,,,0.00,VWS V14.01,2013-04-04 07:35:00,
2013-04-04 02:40:00,46.2,43.7,29.58,North,5,1.0,3.0,91,0.00,,,0.00,VWS V14.01,2013-04-04 07:40:00,
2013-04-04 02:45:00,46.2,43.7,29.58,North,5,4.0,4.0,91,0.00,,,0.00,VWS V14.01,2013-04-04 07:45:00,
2013-04-04 02:50:00,46.1,43.6,29.58,North,355,0.0,0.0,91,0.00,,,0.00,VWS V14.01,2013-04-04 07:50:00,
2013-04-04 02:55:00,46.1,43.6,29.58,North,355,0.0,2.0,91,0.00,,,0.00,VWS V14.01,2013-04-04 07:55:00,
2013-04-04 03:00:00,46.2,43.7,29.58,North,355,0.0,2.0,91,0.00,,,0.00,VWS V14.01,2013-04-04 08:00:00,
2013-04-04 03:05:00,46.2,43.7,29.58,North,355,1.0,3.0,91,0.00,,,0.00,VWS V14.01,2013-04-04 08:05:00,
2013-04-04 03:10:00,46.1,43.6,29.58,North,355,0.0,0.0,91,0.00,,,0.00,VWS V14.01,2013-04-04 08:10:00,
2013-04-04 03:15:00,46.1,43.6,29.58,North,355,1.0,4.0,91,0.00,,,0.00,VWS V14.01,2013-04-04 08:15:00,
2013-04-04 03:20:00,46.1,43.6,29.58,North,355,1.0,1.0,91,0.00,,,0.00,VWS V14.01,2013-04-04 08:20:00,
2013-04-04 03:25:00,46.1,43.6,29.58,North,355,0.0,2.0,91,0.00,,,0.00,VWS V14.01,2013-04-04 08:25:00,
2013-04-04 03:30:00,46.1,43.6,29.58,North,355,0.0,0.0,91,0.00,,,0.00,VWS V14.01,2013-04-04 08:30:00,
2013-04-04 03:35:00,46.2,43.7,29.58,North,355,1.0,3.0,91,0.00,,,0.00,VWS V14.01,2013-04-04 08:35:00,
2013-04-04 03:40:00,46.2,43.7,29.58,North,355,0.0,0.0,91,0.00,,,0.00,VWS V14.01,2013-04-04 08:40:00,
2013-04-04 03:45:00,46.3,43.8,29.58,North,355,0.0,3.0,91,0.00,,,0.00,VWS V14.01,2013-04-04 08:45:00,
2013-04-04 03:50:00,46.4,43.9,29.58,North,360,2.0,2.0,91,0.00,,,0.00,VWS V14.01,2013-04-04 08:50:00,
2013-04-04 03:55:00,46.4,43.9,29.58,North,11,3.0,6.0,91,0.00,,,0.00,VWS V14.01,2013-04-04 08:55:00,
2013-04-04 04:00:00,46.4,43.9,29.58,North,5,1.0,3.0,91,0.00,,,0.00,VWS V14.01,2013-04-04 09:00:00,
2013-04-04 04:05:00,46.3,43.8,29.57,North,5,2.0,4.0,91,0.00,,,0.00,VWS V14.01,2013-04-04 09:05:00,
2013-04-04 04:10:00,46.2,44.0,29.57,North,5,2.0,2.0,92,0.00,,,0.00,VWS V14.01,2013-04-04 09:10:00,
2013-04-04 04:15:00,46.1,43.9,29.57,North,5,0.0,5.0,92,0.00,,,0.00,VWS V14.01,2013-04-04 09:15:00,
2013-04-04 04:20:00,46.1,43.9,29.57,North,5,0.0,5.0,92,0.00,,,0.00,VWS V14.01,2013-04-04 09:20:00,
2013-04-04 04:25:00,46.1,43.9,29.57,North,5,0.0,5.0,92,0.00,,,0.00,VWS V14.01,2013-04-04 09:25:00,
2013-04-04 04:30:00,46.0,43.8,29.57,North,5,1.0,5.0,92,0.00,,,0.00,VWS V14.01,2013-04-04 09:30:00,
2013-04-04 04:35:00,46.0,43.8,29.57,North,5,2.0,5.0,92,0.00,,,0.00,VWS V14.01,2013-04-04 09:35:00,
2013-04-04 04:40:00,45.9,43.7,29.57,North,5,3.0,3.0,92,0.00,,,0.00,VWS V14.01,2013-04-04 09:40:00,
2013-04-04 04:45:00,45.7,43.5,29.57,North,351,7.0,7.0,92,0.00,,,0.00,VWS V14.01,2013-04-04 09:45:00,
2013-04-04 04:50:00,45.6,43.4,29.57,North,5,0.0,1.0,92,0.00,,,0.00,VWS V14.01,2013-04-04 09:50:00,
2013-04-04 04:55:00,45.6,43.4,29.57,North,11,2.0,5.0,92,0.00,,,0.00,VWS V14.01,2013-04-04 09:55:00,
2013-04-04 05:00:00,45.5,43.3,29.58,North,5,4.0,4.0,92,0.00,,,0.00,VWS V14.01,2013-04-04 10:00:00,
2013-04-04 05:05:00,45.6,43.4,29.58,North,5,3.0,5.0,92,0.00,,,0.00,VWS V14.01,2013-04-04 10:05:00,
2013-04-04 05:10:00,45.6,43.4,29.58,North,360,1.0,1.0,92,0.00,,,0.00,VWS V14.01,2013-04-04 10:10:00,
2013-04-04 05:15:00,45.5,43.3,29.58,NNW,336,1.0,7.0,92,0.00,,,0.00,VWS V14.01,2013-04-04 10:15:00,
2013-04-04 05:20:00,45.6,43.4,29.58,North,10,3.0,3.0,92,0.00,,,0.00,VWS V14.01,2013-04-04 10:20:00,
2013-04-04 05:25:00,45.5,43.3,29.58,North,360,1.0,8.0,92,0.00,,,0.00,VWS V14.01,2013-04-04 10:25:00,
2013-04-04 05:30:00,45.5,43.3,29.58,North,355,1.0,5.0,92,0.00,,,0.00,VWS V14.01,2013-04-04 10:30:00,
2013-04-04 05:35:00,45.4,43.2,29.58,North,5,2.0,5.0,92,0.00,,,0.00,VWS V14.01,2013-04-04 10:35:00,
2013-04-04 05:40:00,45.4,43.2,29.58,North,5,1.0,2.0,92,0.00,,,0.00,VWS V14.01,2013-04-04 10:40:00,
2013-04-04 05:45:00,45.3,43.1,29.58,North,5,2.0,6.0,92,0.00,,,0.00,VWS V14.01,2013-04-04 10:45:00,
2013-04-04 05:50:00,45.3,43.1,29.58,NNE,21,2.0,5.0,92,0.00,,,0.00,VWS V14.01,2013-04-04 10:50:00,
2013-04-04 05:55:00,45.2,43.0,29.58,North,9,0.0,5.0,92,0.00,,,0.00,VWS V14.01,2013-04-04 10:55:00,
2013-04-04 06:00:00,45.2,43.0,29.58,North,5,3.0,4.0,92,0.00,,,0.00,VWS V14.01,2013-04-04 11:00:00,
2013-04-04 06:05:00,45.0,42.8,29.58,North,10,5.0,9.0,92,0.00,,,0.00,VWS V14.01,2013-04-04 11:05:00,
2013-04-04 06:10:00,44.9,42.7,29.58,NW,311,1.0,4.0,92,0.00,,,0.00,VWS V14.01,2013-04-04 11:10:00,
2013-04-04 06:15:00,44.7,42.5,29.58,North,355,3.0,9.0,92,0.00,,,0.00,VWS V14.01,2013-04-04 11:15:00,
2013-04-04 06:20:00,44.6,42.4,29.58,North,5,2.0,3.0,92,0.00,,,0.00,VWS V14.01,2013-04-04 11:20:00,
2013-04-04 06:25:00,44.6,42.4,29.58,North,5,1.0,7.0,92,0.00,,,0.00,VWS V14.01,2013-04-04 11:25:00,
2013-04-04 06:30:00,44.6,42.4,29.59,NNE,17,3.0,5.0,92,0.00,,,0.00,VWS V14.01,2013-04-04 11:30:00,
2013-04-04 06:35:00,44.6,42.4,29.59,North,360,7.0,7.0,92,0.00,,,0.00,VWS V14.01,2013-04-04 11:35:00,
2013-04-04 06:40:00,44.6,42.4,29.59,NNE,12,0.0,1.0,92,0.00,,,0.00,VWS V14.01,2013-04-04 11:40:00,
2013-04-04 06:45:00,44.6,42.4,29.59,North,355,3.0,6.0,92,0.00,,,0.00,VWS V14.01,2013-04-04 11:45:00,
2013-04-04 06:50:00,44.7,42.5,29.59,North,5,4.0,5.0,92,0.00,,,0.00,VWS V14.01,2013-04-04 11:50:00,
2013-04-04 06:55:00,44.7,42.5,29.60,NNE,14,6.0,6.0,92,0.00,,,0.00,VWS V14.01,2013-04-04 11:55:00,
2013-04-04 07:00:00,44.6,42.4,29.60,NNW,348,4.0,5.0,92,0.00,,,0.00,VWS V14.01,2013-04-04 12:00:00,
2013-04-04 07:05:00,44.6,42.4,29.60,North,355,2.0,8.0,92,0.00,,,0.00,VWS V14.01,2013-04-04 12:05:00,
2013-04-04 07:10:00,44.6,42.4,29.60,NNE,24,3.0,4.0,92,0.00,,,0.00,VWS V14.01,2013-04-04 12:10:00,
2013-04-04 07:15:00,44.5,42.3,29.60,NW,318,1.0,7.0,92,0.00,,,0.00,VWS V14.01,2013-04-04 12:15:00,
2013-04-04 07:20:00,44.5,42.3,29.61,North,5,5.0,5.0,92,0.00,,,0.00,VWS V14.01,2013-04-04 12:20:00,
2013-04-04 07:25:00,44.4,42.2,29.61,North,355,2.0,8.0,92,0.00,,,0.00,VWS V14.01,2013-04-04 12:25:00,
2013-04-04 07:30:00,44.3,42.1,29.61,North,350,5.0,5.0,92,0.00,,,0.00,VWS V14.01,2013-04-04 12:30:00,
2013-04-04 07:35:00,44.2,42.0,29.61,NNE,17,4.0,8.0,92,0.00,,,0.00,VWS V14.01,2013-04-04 12:35:00,
2013-04-04 07:40:00,44.2,42.0,29.61,NNE,19,1.0,3.0,92,0.00,,,0.00,VWS V14.01,2013-04-04 12:40:00,
2013-04-04 07:45:00,44.2,42.3,29.62,North,360,3.0,5.0,93,0.00,,,0.00,VWS V14.01,2013-04-04 12:45:00,
2013-04-04 07:50:00,44.1,41.9,29.62,North,360,4.0,4.0,92,0.00,,,0.00,VWS V14.01,2013-04-04 12:50:00,
2013-04-04 07:55:00,44.0,41.8,29.62,NNE,24,2.0,6.0,92,0.00,,,0.00,VWS V14.01,2013-04-04 12:55:00,
2013-04-04 08:00:00,43.9,41.7,29.62,North,5,2.0,4.0,92,0.00,,,0.00,VWS V14.01,2013-04-04 13:00:00,
2013-04-04 08:05:00,43.9,41.7,29.62,North,355,2.0,7.0,92,0.00,,,0.00,VWS V14.01,2013-04-04 13:05:00,
2013-04-04 08:10:00,43.9,41.7,29.62,NNE,19,6.0,6.0,92,0.00,,,0.00,VWS V14.01,2013-04-04 13:10:00,
2013-04-04 08:15:00,44.0,41.8,29.62,NNW,348,5.0,7.0,92,0.00,,,0.00,VWS V14.01,2013-04-04 13:15:00,
2013-04-04 08:20:00,44.1,42.2,29.62,NNW,346,2.0,3.0,93,0.00,,,0.00,VWS V14.01,2013-04-04 13:20:00,
2013-04-04 08:25:00,44.2,42.0,29.62,North,5,4.0,6.0,92,0.00,,,0.00,VWS V14.01,2013-04-04 13:25:00,
2013-04-04 08:30:00,44.3,42.1,29.63,North,349,2.0,3.0,92,0.00,,,0.00,VWS V14.01,2013-04-04 13:30:00,
2013-04-04 08:35:00,44.3,42.1,29.63,NE,50,1.0,6.0,92,0.00,,,0.00,VWS V14.01,2013-04-04 13:35:00,
2013-04-04 08:40:00,44.3,42.1,29.63,North,5,1.0,3.0,92,0.00,,,0.00,VWS V14.01,2013-04-04 13:40:00,
2013-04-04 08:45:00,44.4,42.2,29.63,North,355,2.0,7.0,92,0.00,,,0.00,VWS V14.01,2013-04-04 13:45:00,
2013-04-04 08:50:00,44.5,42.3,29.63,NNE,13,3.0,3.0,92,0.00,,,0.00,VWS V14.01,2013-04-04 13:50:00,
2013-04-04 08:55:00,44.5,42.3,29.63,North,5,6.0,7.0,92,0.00,,,0.00,VWS V14.01,2013-04-04 13:55:00,
2013-04-04 09:00:00,44.5,42.0,29.63,NNW,340,2.0,3.0,91,0.00,,,0.00,VWS V14.01,2013-04-04 14:00:00,
2013-04-04 09:05:00,44.6,42.1,29.63,NNE,12,2.0,5.0,91,0.00,,,0.00,VWS V14.01,2013-04-04 14:05:00,
2013-04-04 09:11:00,44.6,42.1,29.63,North,5,4.0,5.0,91,0.00,,,0.00,VWS V14.01,2013-04-04 14:11:00,
2013-04-04 09:16:00,44.7,42.2,29.63,NNE,15,0.0,7.0,91,0.00,,,0.00,VWS V14.01,2013-04-04 14:16:00,
2013-04-04 09:21:00,44.8,42.3,29.64,NNW,338,0.0,3.0,91,0.00,,,0.00,VWS V14.01,2013-04-04 14:21:00,
2013-04-04 09:26:00,44.9,42.4,29.64,North,5,1.0,7.0,91,0.00,,,0.00,VWS V14.01,2013-04-04 14:26:00,
2013-04-04 09:31:00,44.9,42.4,29.64,North,355,1.0,4.0,91,0.00,,,0.00,VWS V14.01,2013-04-04 14:31:00,
2013-04-04 09:36:00,45.0,42.5,29.64,North,5,4.0,4.0,91,0.00,,,0.00,VWS V14.01,2013-04-04 14:36:00,
2013-04-04 09:41:00,45.1,42.3,29.65,North,360,2.0,3.0,90,0.00,,,0.00,VWS V14.01,2013-04-04 14:41:00,
2013-04-04 09:46:00,45.2,42.7,29.64,NNE,13,1.0,5.0,91,0.00,,,0.00,VWS V14.01,2013-04-04 14:46:00,
2013-04-04 09:51:00,45.2,42.7,29.65,NNE,15,1.0,4.0,91,0.00,,,0.00,VWS V14.01,2013-04-04 14:51:00,
2013-04-04 09:56:00,45.2,42.7,29.65,North,10,5.0,11.0,91,0.00,,,0.00,VWS V14.01,2013-04-04 14:56:00,
2013-04-04 10:01:00,45.4,42.9,29.65,North,355,2.0,4.0,91,0.00,,,0.00,VWS V14.01,2013-04-04 15:01:00,
2013-04-04 10:06:00,45.5,42.7,29.65,North,5,3.0,6.0,90,0.00,,,0.00,VWS V14.01,2013-04-04 15:06:00,
2013-04-04 10:11:00,45.5,42.7,29.65,NNW,344,3.0,5.0,90,0.00,,,0.00,VWS V14.01,2013-04-04 15:11:00,
2013-04-04 10:16:00,45.5,42.7,29.66,NNE,30,0.0,7.0,90,0.00,,,0.00,VWS V14.01,2013-04-04 15:16:00,
2013-04-04 10:22:00,45.6,42.8,29.66,NNW,338,0.0,4.0,90,0.00,,,0.00,VWS V14.01,2013-04-04 15:22:00,
2013-04-04 10:27:00,45.5,42.7,29.66,NE,50,1.0,7.0,90,0.00,,,0.00,VWS V14.01,2013-04-04 15:27:00,
2013-04-04 10:32:00,45.5,42.7,29.67,North,355,0.0,5.0,90,0.00,,,0.00,VWS V14.01,2013-04-04 15:32:00,
2013-04-04 10:37:00,45.4,42.6,29.67,NW,323,1.0,5.0,90,0.00,,,0.00,VWS V14.01,2013-04-04 15:37:00,
2013-04-04 10:42:00,45.9,43.4,29.67,NNE,24,3.0,3.0,91,0.00,,,0.00,VWS V14.01,2013-04-04 15:42:00,
2013-04-04 10:47:00,46.1,43.3,29.67,NNE,14,0.0,7.0,90,0.00,,,0.00,VWS V14.01,2013-04-04 15:47:00,
2013-04-04 10:52:00,46.4,43.6,29.67,North,360,1.0,8.0,90,0.00,,,0.00,VWS V14.01,2013-04-04 15:52:00,
2013-04-04 10:57:00,46.5,43.7,29.67,North,355,3.0,9.0,90,0.00,,,0.00,VWS V14.01,2013-04-04 15:57:00,
2013-04-04 11:02:00,46.4,43.3,29.68,NW,311,0.0,7.0,89,0.00,,,0.00,VWS V14.01,2013-04-04 16:02:00,
2013-04-04 11:07:00,46.7,43.6,29.68,North,5,3.0,8.0,89,0.00,,,0.00,VWS V14.01,2013-04-04 16:07:00,
2013-04-04 11:12:00,46.5,43.4,29.68,NW,311,3.0,5.0,89,0.00,,,0.00,VWS V14.01,2013-04-04 16:12:00,
2013-04-04 11:17:00,46.4,43.0,29.68,WNW,303,0.0,7.0,88,0.00,,,0.00,VWS V14.01,2013-04-04 16:17:00,
2013-04-04 11:22:00,46.5,43.4,29.68,NNE,13,3.0,6.0,89,0.00,,,0.00,VWS V14.01,2013-04-04 16:22:00,
2013-04-04 11:27:00,46.5,43.1,29.68,NNE,29,3.0,7.0,88,0.00,,,0.00,VWS V14.01,2013-04-04 16:27:00,
2013-04-04 11:32:00,46.4,43.0,29.68,North,355,1.0,6.0,88,0.00,,,0.00,VWS V14.01,2013-04-04 16:32:00,
2013-04-04 11:37:00,46.3,43.0,29.68,NNE,21,4.0,6.0,88,0.00,,,0.00,VWS V14.01,2013-04-04 16:37:00,
2013-04-04 11:42:00,46.3,43.0,29.68,NNW,327,1.0,4.0,88,0.00,,,0.00,VWS V14.01,2013-04-04 16:42:00,
2013-04-04 11:47:00,46.2,42.8,29.68,NNE,23,1.0,5.0,88,0.00,,,0.00,VWS V14.01,2013-04-04 16:47:00,
2013-04-04 11:52:00,46.1,42.8,29.68,North,5,1.0,3.0,88,0.00,,,0.00,VWS V14.01,2013-04-04 16:52:00,
2013-04-04 11:57:00,46.2,43.1,29.68,North,5,0.0,3.0,89,0.00,,,0.00,VWS V14.01,2013-04-04 16:57:00,
2013-04-04 12:02:00,46.1,43.0,29.68,NNE,16,2.0,5.0,89,0.00,,,0.00,VWS V14.01,2013-04-04 17:02:00,
2013-04-04 12:07:00,46.0,43.0,29.68,NNE,15,0.0,5.0,89,0.00,,,0.00,VWS V14.01,2013-04-04 17:07:00,
2013-04-04 12:12:00,46.0,43.0,29.68,NNE,15,0.0,0.0,89,0.00,,,0.00,VWS V14.01,2013-04-04 17:12:00,
2013-04-04 12:17:00,46.0,43.2,29.68,NNE,15,3.0,3.0,90,0.00,,,0.00,VWS V14.01,2013-04-04 17:17:00,
2013-04-04 12:22:00,45.9,43.1,29.68,North,11,2.0,5.0,90,0.00,,,0.00,VWS V14.01,2013-04-04 17:22:00,
2013-04-04 12:27:00,45.8,43.0,29.68,WNW,296,1.0,5.0,90,0.00,,,0.00,VWS V14.01,2013-04-04 17:27:00,
2013-04-04 12:32:00,45.8,43.0,29.68,NNW,348,2.0,6.0,90,0.00,,,0.00,VWS V14.01,2013-04-04 17:32:00,
2013-04-04 12:37:00,45.8,43.0,29.68,NNW,329,3.0,12.0,90,0.00,,,0.00,VWS V14.01,2013-04-04 17:37:00,
2013-04-04 12:42:00,45.9,43.1,29.68,North,360,2.0,8.0,90,0.00,,,0.00,VWS V14.01,2013-04-04 17:42:00,
2013-04-04 12:47:00,45.9,43.1,29.68,NNE,20,1.0,8.0,90,0.00,,,0.00,VWS V14.01,2013-04-04 17:47:00,
2013-04-04 12:52:00,45.9,42.8,29.68,NNW,327,1.0,5.0,89,0.00,,,0.00,VWS V14.01,2013-04-04 17:52:00,
2013-04-04 12:57:00,45.9,42.8,29.68,North,5,6.0,7.0,89,0.00,,,0.00,VWS V14.01,2013-04-04 17:57:00,
2013-04-04 13:02:00,45.9,42.8,29.67,NNW,327,2.0,7.0,89,0.00,,,0.00,VWS V14.01,2013-04-04 18:02:00,
2013-04-04 13:07:00,46.0,43.0,29.67,NNW,339,4.0,8.0,89,0.00,,,0.00,VWS V14.01,2013-04-04 18:07:00,
2013-04-04 13:12:00,46.5,43.4,29.67,NNW,331,2.0,7.0,89,0.00,,,0.00,VWS V14.01,2013-04-04 18:12:00,
2013-04-04 13:17:00,46.9,43.5,29.67,NNE,17,0.0,7.0,88,0.00,,,0.00,VWS V14.01,2013-04-04 18:17:00,
2013-04-04 13:22:00,47.5,44.1,29.66,North,350,5.0,12.0,88,0.00,,,0.00,VWS V14.01,2013-04-04 18:22:00,
2013-04-04 13:27:00,47.5,43.8,29.66,NW,306,4.0,12.0,87,0.00,,,0.00,VWS V14.01,2013-04-04 18:27:00,
2013-04-04 13:32:00,47.5,43.8,29.66,NNW,329,4.0,4.0,87,0.00,,,0.00,VWS V14.01,2013-04-04 18:32:00,
2013-04-04 13:37:00,48.1,44.4,29.66,NW,310,3.0,7.0,87,0.00,,,0.00,VWS V14.01,2013-04-04 18:37:00,
2013-04-04 13:42:00,48.5,44.2,29.66,NNE,22,4.0,9.0,85,0.00,,,0.00,VWS V14.01,2013-04-04 18:42:00,
2013-04-04 13:47:00,47.9,43.0,29.66,North,5,2.0,10.0,83,0.00,,,0.00,VWS V14.01,2013-04-04 18:47:00,
2013-04-04 13:52:00,48.6,44.0,29.65,NNW,339,1.0,9.0,84,0.00,,,0.00,VWS V14.01,2013-04-04 18:52:00,
2013-04-04 13:57:00,48.9,43.7,29.65,NW,305,5.0,11.0,82,0.00,,,0.00,VWS V14.01,2013-04-04 18:57:00,
2013-04-04 14:02:00,48.5,43.0,29.65,NNW,348,2.0,7.0,81,0.00,,,0.00,VWS V14.01,2013-04-04 19:02:00,
2013-04-04 14:07:00,48.4,43.2,29.65,NNW,342,4.0,10.0,82,0.00,,,0.00,VWS V14.01,2013-04-04 19:07:00,
2013-04-04 14:12:00,48.1,42.5,29.65,NNW,345,3.0,9.0,81,0.00,,,0.00,VWS V14.01,2013-04-04 19:12:00,
2013-04-04 14:17:00,48.3,43.4,29.64,NNW,348,5.0,9.0,83,0.00,,,0.00,VWS V14.01,2013-04-04 19:17:00,
2013-04-04 14:22:00,48.7,43.5,29.64,NNW,338,3.0,7.0,82,0.00,,,0.00,VWS V14.01,2013-04-04 19:22:00,
2013-04-04 14:27:00,48.9,43.3,29.65,WNW,292,7.0,9.0,81,0.00,,,0.00,VWS V14.01,2013-04-04 19:27:00,
2013-04-04 14:32:00,48.7,43.1,29.64,NNE,23,1.0,7.0,81,0.00,,,0.00,VWS V14.01,2013-04-04 19:32:00,
2013-04-04 14:37:00,48.3,42.8,29.64,North,5,2.0,7.0,81,0.00,,,0.00,VWS V14.01,2013-04-04 19:37:00,
2013-04-04 14:42:00,48.0,42.8,29.64,North,5,2.0,4.0,82,0.00,,,0.00,VWS V14.01,2013-04-04 19:42:00,
2013-04-04 14:47:00,48.0,42.8,29.64,NNW,342,3.0,7.0,82,0.00,,,0.00,VWS V14.01,2013-04-04 19:47:00,
2013-04-04 14:53:00,47.8,42.6,29.64,NNE,27,2.0,9.0,82,0.00,,,0.00,VWS V14.01,2013-04-04 19:53:00,
2013-04-04 14:58:00,47.6,42.4,29.64,North,355,0.0,11.0,82,0.00,,,0.00,VWS V14.01,2013-04-04 19:58:00,
2013-04-04 15:03:00,47.5,42.3,29.64,North,5,9.0,9.0,82,0.00,,,0.00,VWS V14.01,2013-04-04 20:03:00,
2013-04-04 15:08:00,47.4,42.2,29.64,North,9,0.0,11.0,82,0.00,,,0.00,VWS V14.01,2013-04-04 20:08:00,
2013-04-04 15:13:00,47.4,42.5,29.64,North,360,3.0,9.0,83,0.00,,,0.00,VWS V14.01,2013-04-04 20:13:00,
2013-04-04 15:18:00,47.4,42.5,29.64,NNW,347,8.0,9.0,83,0.00,,,0.00,VWS V14.01,2013-04-04 20:18:00,
2013-04-04 15:23:00,47.7,42.8,29.63,North,9,5.0,9.0,83,0.00,,,0.00,VWS V14.01,2013-04-04 20:23:00,
2013-04-04 15:28:00,48.1,43.2,29.63,NNE,20,1.0,11.0,83,0.00,,,0.00,VWS V14.01,2013-04-04 20:28:00,
2013-04-04 15:33:00,48.8,43.9,29.63,North,349,6.0,8.0,83,0.00,,,0.00,VWS V14.01,2013-04-04 20:33:00,
2013-04-04 15:38:00,49.0,43.4,29.63,NW,326,3.0,9.0,81,0.00,,,0.00,VWS V14.01,2013-04-04 20:38:00,
2013-04-04 15:43:00,49.1,43.5,29.63,NNE,17,3.0,6.0,81,0.00,,,0.00,VWS V14.01,2013-04-04 20:43:00,
2013-04-04 15:48:00,48.8,43.2,29.63,North,355,4.0,9.0,81,0.00,,,0.00,VWS V14.01,2013-04-04 20:48:00,
2013-04-04 15:53:00,48.5,43.0,29.63,NNE,19,5.0,9.0,81,0.00,,,0.00,VWS V14.01,2013-04-04 20:53:00,
2013-04-04 15:58:00,48.3,42.8,29.62,North,5,4.0,11.0,81,0.00,,,0.00,VWS V14.01,2013-04-04 20:58:00,
2013-04-04 16:03:00,48.3,43.1,29.62,NW,307,1.0,11.0,82,0.00,,,0.00,VWS V14.01,2013-04-04 21:03:00,
2013-04-04 16:08:00,48.3,43.1,29.62,NNE,22,2.0,11.0,82,0.00,,,0.00,VWS V14.01,2013-04-04 21:08:00,
2013-04-04 16:13:00,48.2,43.0,29.62,NNE,20,2.0,3.0,82,0.00,,,0.00,VWS V14.01,2013-04-04 21:13:00,
2013-04-04 16:18:00,48.2,43.3,29.62,NNW,331,8.0,8.0,83,0.00,,,0.00,VWS V14.01,2013-04-04 21:18:00,
2013-04-04 16:23:00,48.1,43.2,29.62,North,5,2.0,7.0,83,0.00,,,0.00,VWS V14.01,2013-04-04 21:23:00,
2013-04-04 16:28:00,48.1,43.2,29.62,North,360,1.0,7.0,83,0.00,,,0.00,VWS V14.01,2013-04-04 21:28:00,
2013-04-04 16:33:00,48.2,43.3,29.62,North,360,5.0,7.0,83,0.00,,,0.00,VWS V14.01,2013-04-04 21:33:00,
2013-04-04 16:38:00,48.2,43.3,29.62,NNE,15,2.0,8.0,83,0.00,,,0.00,VWS V14.01,2013-04-04 21:38:00,
2013-04-04 16:43:00,48.6,43.7,29.61,North,9,3.0,6.0,83,0.00,,,0.00,VWS V14.01,2013-04-04 21:43:00,
2013-04-04 16:48:00,49.1,43.8,29.61,NW,311,1.0,7.0,82,0.00,,,0.00,VWS V14.01,2013-04-04 21:48:00,
2013-04-04 16:53:00,49.7,44.1,29.61,North,5,4.0,10.0,81,0.00,,,0.00,VWS V14.01,2013-04-04 21:53:00,
2013-04-04 16:58:00,49.9,44.0,29.61,North,355,7.0,10.0,80,0.00,,,0.00,VWS V14.01,2013-04-04 21:58:00,
2013-04-04 17:03:00,49.9,43.7,29.61,North,351,3.0,10.0,79,0.00,,,0.00,VWS V14.01,2013-04-04 22:03:00,
2013-04-04 17:08:00,49.9,43.7,29.61,North,360,7.0,10.0,79,0.00,,,0.00,VWS V14.01,2013-04-04 22:08:00,
2013-04-04 17:13:00,49.8,43.6,29.61,NNW,339,4.0,9.0,79,0.00,,,0.00,VWS V14.01,2013-04-04 22:13:00,
2013-04-04 17:18:00,49.7,43.5,29.61,NW,326,6.0,9.0,79,0.00,,,0.00,VWS V14.01,2013-04-04 22:18:00,
2013-04-04 17:23:00,49.7,43.5,29.61,NNE,26,2.0,8.0,79,0.00,,,0.00,VWS V14.01,2013-04-04 22:23:00,
2013-04-04 17:28:00,49.7,43.5,29.61,North,10,3.0,8.0,79,0.00,,,0.00,VWS V14.01,2013-04-04 22:28:00,
2013-04-04 17:33:00,49.8,43.9,29.61,NNE,17,2.0,6.0,80,0.00,,,0.00,VWS V14.01,2013-04-04 22:33:00,
2013-04-04 17:38:00,50.1,44.5,29.61,NW,321,4.0,6.0,81,0.00,,,0.00,VWS V14.01,2013-04-04 22:38:00,
2013-04-04 17:43:00,50.2,44.6,29.61,NNE,13,0.0,4.0,81,0.00,,,0.00,VWS V14.01,2013-04-04 22:43:00,
2013-04-04 17:48:00,50.1,44.2,29.61,NW,307,2.0,4.0,80,0.00,,,0.00,VWS V14.01,2013-04-04 22:48:00,
2013-04-04 17:53:00,50.0,44.1,29.61,North,10,3.0,4.0,80,0.00,,,0.00,VWS V14.01,2013-04-04 22:53:00,
2013-04-04 17:58:00,49.8,43.9,29.62,NNE,15,1.0,7.0,80,0.00,,,0.00,VWS V14.01,2013-04-04 22:58:00,
2013-04-04 18:03:00,49.6,43.7,29.62,NNE,15,3.0,5.0,80,0.00,,,0.00,VWS V14.01,2013-04-04 23:03:00,
2013-04-04 18:08:00,49.4,43.5,29.62,NNE,13,3.0,8.0,80,0.00,,,0.00,VWS V14.01,2013-04-04 23:08:00,
2013-04-04 18:13:00,49.4,43.8,29.62,NW,307,2.0,7.0,81,0.00,,,0.00,VWS V14.01,2013-04-04 23:13:00,
2013-04-04 18:18:00,49.4,43.8,29.62,North,5,8.0,8.0,81,0.00,,,0.00,VWS V14.01,2013-04-04 23:18:00,
2013-04-04 18:23:00,49.3,43.7,29.62,North,355,2.0,10.0,81,0.00,,,0.00,VWS V14.01,2013-04-04 23:23:00,
2013-04-04 18:28:00,49.3,43.7,29.62,NNE,14,3.0,10.0,81,0.00,,,0.00,VWS V14.01,2013-04-04 23:28:00,
2013-04-04 18:33:00,49.4,43.8,29.62,North,9,3.0,6.0,81,0.00,,,0.00,VWS V14.01,2013-04-04 23:33:00,
2013-04-04 18:38:00,49.4,43.8,29.62,North,5,2.0,6.0,81,0.00,,,0.00,VWS V14.01,2013-04-04 23:38:00,
2013-04-04 18:43:00,49.4,43.8,29.62,NNE,24,0.0,3.0,81,0.00,,,0.00,VWS V14.01,2013-04-04 23:43:00,
2013-04-04 18:48:00,49.4,43.8,29.63,North,11,3.0,5.0,81,0.00,,,0.00,VWS V14.01,2013-04-04 23:48:00,
2013-04-04 18:53:00,49.4,43.8,29.62,NNE,13,1.0,4.0,81,0.00,,,0.00,VWS V14.01,2013-04-04 23:53:00,
2013-04-04 18:58:00,49.4,43.8,29.63,North,360,0.0,6.0,81,0.00,,,0.00,VWS V14.01,2013-04-04 23:58:00,
2013-04-04 19:03:00,49.3,43.4,29.63,North,5,4.0,5.0,80,0.00,,,0.00,VWS V14.01,2013-04-05 00:03:00,
2013-04-04 19:08:00,49.3,43.4,29.63,North,11,0.0,6.0,80,0.00,,,0.00,VWS V14.01,2013-04-05 00:08:00,
2013-04-04 19:13:00,49.3,43.7,29.63,North,11,2.0,5.0,81,0.00,,,0.00,VWS V14.01,2013-04-05 00:13:00,
2013-04-04 19:18:00,49.3,43.7,29.63,North,350,1.0,6.0,81,0.00,,,0.00,VWS V14.01,2013-04-05 00:18:00,
2013-04-04 19:23:00,49.3,43.7,29.63,North,350,3.0,5.0,81,0.00,,,0.00,VWS V14.01,2013-04-05 00:23:00,
2013-04-04 19:28:00,49.2,43.6,29.63,NNE,14,5.0,5.0,81,0.00,,,0.00,VWS V14.01,2013-04-05 00:28:00,
2013-04-04 19:33:00,49.2,43.6,29.63,NNE,17,1.0,8.0,81,0.00,,,0.00,VWS V14.01,2013-04-05 00:33:00,
2013-04-04 19:38:00,49.2,43.6,29.63,NNE,15,1.0,8.0,81,0.00,,,0.00,VWS V14.01,2013-04-05 00:38:00,
2013-04-04 19:43:00,49.1,43.5,29.63,NNE,15,3.0,6.0,81,0.00,,,0.00,VWS V14.01,2013-04-05 00:43:00,
2013-04-04 19:48:00,49.1,43.5,29.63,NNE,15,1.0,6.0,81,0.00,,,0.00,VWS V14.01,2013-04-05 00:48:00,
2013-04-04 19:53:00,49.1,43.5,29.63,NNE,15,2.0,4.0,81,0.00,,,0.00,VWS V14.01,2013-04-05 00:53:00,
2013-04-04 19:58:00,49.1,43.5,29.63,NNE,15,0.0,4.0,81,0.00,,,0.00,VWS V14.01,2013-04-05 00:58:00,
2013-04-04 20:03:00,49.1,43.5,29.63,NNE,15,0.0,3.0,81,0.00,,,0.00,VWS V14.01,2013-04-05 01:03:00,
2013-04-04 20:08:00,49.0,43.4,29.63,North,355,1.0,5.0,81,0.00,,,0.00,VWS V14.01,2013-04-05 01:08:00,
2013-04-04 20:13:00,49.0,43.4,29.63,North,351,0.0,4.0,81,0.00,,,0.00,VWS V14.01,2013-04-05 01:13:00,
2013-04-04 20:18:00,49.0,43.4,29.64,North,360,0.0,4.0,81,0.00,,,0.00,VWS V14.01,2013-04-05 01:18:00,
2013-04-04 20:23:00,49.0,43.4,29.64,North,360,1.0,4.0,81,0.00,,,0.00,VWS V14.01,2013-04-05 01:23:00,
2013-04-04 20:28:00,49.0,43.4,29.64,North,360,2.0,4.0,81,0.00,,,0.00,VWS V14.01,2013-04-05 01:28:00,
2013-04-04 20:33:00,49.0,43.8,29.64,North,360,1.0,2.0,82,0.00,,,0.00,VWS V14.01,2013-04-05 01:33:00,
2013-04-04 20:39:00,49.0,43.8,29.64,North,360,1.0,2.0,82,0.00,,,0.00,VWS V14.01,2013-04-05 01:39:00,
2013-04-04 20:44:00,49.0,43.8,29.64,North,360,0.0,4.0,82,0.00,,,0.00,VWS V14.01,2013-04-05 01:44:00,
2013-04-04 20:49:00,49.0,43.8,29.64,North,5,2.0,4.0,82,0.00,,,0.00,VWS V14.01,2013-04-05 01:49:00,
2013-04-04 20:54:00,49.0,43.8,29.64,North,5,0.0,3.0,82,0.00,,,0.00,VWS V14.01,2013-04-05 01:54:00,
2013-04-04 20:59:00,48.9,43.7,29.65,North,5,0.0,4.0,82,0.00,,,0.00,VWS V14.01,2013-04-05 01:59:00,
2013-04-04 21:04:00,48.9,43.3,29.65,North,5,2.0,7.0,81,0.00,,,0.00,VWS V14.01,2013-04-05 02:04:00,
2013-04-04 21:09:00,48.9,43.3,29.65,North,11,2.0,7.0,81,0.00,,,0.00,VWS V14.01,2013-04-05 02:09:00,
2013-04-04 21:14:00,48.9,43.3,29.65,North,5,1.0,4.0,81,0.00,,,0.00,VWS V14.01,2013-04-05 02:14:00,
2013-04-04 21:19:00,49.0,43.1,29.66,North,5,4.0,5.0,80,0.00,,,0.00,VWS V14.01,2013-04-05 02:19:00,
2013-04-04 21:24:00,49.0,43.1,29.66,North,11,2.0,6.0,80,0.00,,,0.00,VWS V14.01,2013-04-05 02:24:00,
2013-04-04 21:29:00,49.0,43.1,29.66,North,9,3.0,6.0,80,0.00,,,0.00,VWS V14.01,2013-04-05 02:29:00,
2013-04-04 21:34:00,49.0,43.1,29.66,North,5,3.0,5.0,80,0.00,,,0.00,VWS V14.01,2013-04-05 02:34:00,
2013-04-04 21:39:00,49.0,43.1,29.66,North,360,3.0,6.0,80,0.00,,,0.00,VWS V14.01,2013-04-05 02:39:00,
2013-04-04 21:44:00,49.0,43.1,29.66,North,5,3.0,6.0,80,0.00,,,0.00,VWS V14.01,2013-04-05 02:44:00,
2013-04-04 21:49:00,49.0,43.1,29.67,North,5,1.0,6.0,80,0.00,,,0.00,VWS V14.01,2013-04-05 02:49:00,
2013-04-04 21:54:00,49.0,43.1,29.67,North,360,0.0,4.0,80,0.00,,,0.00,VWS V14.01,2013-04-05 02:54:00,
2013-04-04 21:59:00,49.0,43.1,29.67,North,10,3.0,4.0,80,0.00,,,0.00,VWS V14.01,2013-04-05 02:59:00,
2013-04-04 22:04:00,49.0,43.1,29.67,North,5,0.0,4.0,80,0.00,,,0.00,VWS V14.01,2013-04-05 03:04:00,
2013-04-04 22:09:00,49.0,43.1,29.67,North,5,2.0,5.0,80,0.00,,,0.00,VWS V14.01,2013-04-05 03:09:00,
2013-04-04 22:14:00,49.0,43.1,29.67,North,5,2.0,4.0,80,0.00,,,0.00,VWS V14.01,2013-04-05 03:14:00,
2013-04-04 22:19:00,49.0,43.1,29.67,North,5,1.0,4.0,80,0.00,,,0.00,VWS V14.01,2013-04-05 03:19:00,
2013-04-04 22:24:00,49.0,43.1,29.67,North,5,1.0,5.0,80,0.00,,,0.00,VWS V14.01,2013-04-05 03:24:00,
2013-04-04 22:30:00,49.0,43.4,29.67,North,10,1.0,5.0,81,0.00,,,0.00,VWS V14.01,2013-04-05 03:30:00,
2013-04-04 22:35:00,49.0,43.4,29.68,North,10,2.0,4.0,81,0.00,,,0.00,VWS V14.01,2013-04-05 03:35:00,
2013-04-04 22:40:00,49.0,43.4,29.68,North,10,2.0,4.0,81,0.00,,,0.00,VWS V14.01,2013-04-05 03:40:00,
2013-04-04 22:45:00,49.0,43.4,29.68,North,10,2.0,4.0,81,0.00,,,0.00,VWS V14.01,2013-04-05 03:45:00,
2013-04-04 22:50:00,49.0,43.4,29.68,North,10,0.0,4.0,81,0.00,,,0.00,VWS V14.01,2013-04-05 03:50:00,
2013-04-04 22:55:00,49.0,43.4,29.68,North,10,2.0,3.0,81,0.00,,,0.00,VWS V14.01,2013-04-05 03:55:00,
2013-04-04 23:00:00,49.0,43.4,29.69,North,10,0.0,3.0,81,0.00,,,0.00,VWS V14.01,2013-04-05 04:00:00,
2013-04-04 23:05:00,48.9,43.3,29.69,North,10,0.0,1.0,81,0.00,,,0.00,VWS V14.01,2013-04-05 04:05:00,
2013-04-04 23:10:00,48.9,43.7,29.69,North,10,0.0,1.0,82,0.00,,,0.00,VWS V14.01,2013-04-05 04:10:00,
2013-04-04 23:15:00,49.0,43.8,29.69,North,10,0.0,0.0,82,0.00,,,0.00,VWS V14.01,2013-04-05 04:15:00,
2013-04-04 23:20:00,49.0,43.8,29.69,North,10,0.0,0.0,82,0.00,,,0.00,VWS V14.01,2013-04-05 04:20:00,
2013-04-04 23:25:00,48.9,43.7,29.69,North,10,0.0,1.0,82,0.00,,,0.00,VWS V14.01,2013-04-05 04:25:00,
2013-04-04 23:30:00,48.9,43.7,29.69,North,10,1.0,1.0,82,0.00,,,0.00,VWS V14.01,2013-04-05 04:30:00,
2013-04-04 23:35:00,48.9,43.7,29.70,North,10,0.0,0.0,82,0.00,,,0.00,VWS V14.01,2013-04-05 04:35:00,
2013-04-04 23:40:00,48.9,43.7,29.69,North,10,0.0,0.0,82,0.00,,,0.00,VWS V14.01,2013-04-05 04:40:00,
2013-04-04 23:45:00,48.8,43.6,29.70,North,10,0.0,1.0,82,0.00,,,0.00,VWS V14.01,2013-04-05 04:45:00,
2013-04-04 23:50:00,48.8,43.6,29.70,North,10,0.0,1.0,82,0.00,,,0.00,VWS V14.01,2013-04-05 04:50:00,
2013-04-04 23:55:00,48.9,44.0,29.70,North,10,0.0,0.0,83,0.00,,,0.00,VWS V14.01,2013-04-05 04:55:00,